owner,sensor,date,latitude,longitude,sea_water_turbidity,qcFlag 
NERRS,ioos:station:NOAA.NERRS:apaebwq:1,2017-09-01T00:45:00Z,29.7858,-84.8752,24.0,1111122 
NERRS,ioos:station:NOAA.NERRS:apaebwq:1,2017-09-01T01:45:00Z,29.7858,-84.8752,26.0,1111122 
NERRS,ioos:station:NOAA.NERRS:apaebwq:1,2017-09-01T02:45:00Z,29.7858,-84.8752,20.0,1111122 
NERRS,ioos:station:NOAA.NERRS:apaebwq:1,2017-09-01T03:45:00Z,29.7858,-84.8752,35.0,1111122 
NERRS,ioos:station:NOAA.NERRS:apaebwq:1,2017-09-01T04:45:00Z,29.7858,-84.8752,15.0,1111122 
NERRS,ioos:station:NOAA.NERRS:apaebwq:1,2017-09-01T05:45:00Z,29.7858,-84.8752,17.0,1111122 
NERRS,ioos:station:NOAA.NERRS:apaebwq:1,2017-09-01T06:45:00Z,29.7858,-84.8752,12.0,1111122 
NERRS,ioos:station:NOAA.NERRS:apaebwq:1,2017-09-01T07:45:00Z,29.7858,-84.8752,15.0,1111122 
NERRS,ioos:station:NOAA.NERRS:apaebwq:1,2017-09-01T08:45:00Z,29.7858,-84.8752,27.0,1111122 
NERRS,ioos:station:NOAA.NERRS:apaebwq:1,2017-09-01T09:45:00Z,29.7858,-84.8752,24.0,1111122 
NERRS,ioos:station:NOAA.NERRS:apaebwq:1,2017-09-01T10:45:00Z,29.7858,-84.8752,26.0,1111122 
NERRS,ioos:station:NOAA.NERRS:apaebwq:1,2017-09-01T11:45:00Z,29.7858,-84.8752,28.0,1111122 
NERRS,ioos:station:NOAA.NERRS:apaebwq:1,2017-09-01T12:45:00Z,29.7858,-84.8752,35.0,1111122 
NERRS,ioos:station:NOAA.NERRS:apaebwq:1,2017-09-01T13:45:00Z,29.7858,-84.8752,26.0,1111122 
NERRS,ioos:station:NOAA.NERRS:apaebwq:1,2017-09-01T14:45:00Z,29.7858,-84.8752,60.0,1111122 
NERRS,ioos:station:NOAA.NERRS:apaebwq:1,2017-09-01T15:45:00Z,29.7858,-84.8752,34.0,1111122 
NERRS,ioos:station:NOAA.NERRS:apaebwq:1,2017-09-01T16:45:00Z,29.7858,-84.8752,17.0,1111122 
NERRS,ioos:station:NOAA.NERRS:apaebwq:1,2017-09-01T17:45:00Z,29.7858,-84.8752,35.0,1111122 
NERRS,ioos:station:NOAA.NERRS:apaebwq:1,2017-09-01T18:45:00Z,29.7858,-84.8752,30.0,1111122 
NERRS,ioos:station:NOAA.NERRS:apaebwq:1,2017-09-01T19:45:00Z,29.7858,-84.8752,40.0,1111122 
NERRS,ioos:station:NOAA.NERRS:apaebwq:1,2017-09-01T20:45:00Z,29.7858,-84.8752,39.0,1111122 
NERRS,ioos:station:NOAA.NERRS:apaebwq:1,2017-09-01T21:45:00Z,29.7858,-84.8752,20.0,1111122 
NERRS,ioos:station:NOAA.NERRS:apaebwq:1,2017-09-01T23:45:00Z,29.7858,-84.8752,17.0,1111122 
NERRS,ioos:station:NOAA.NERRS:apaebwq:1,2017-09-02T00:45:00Z,29.7858,-84.8752,20.0,1111122 
NERRS,ioos:station:NOAA.NERRS:apaebwq:1,2017-09-02T01:45:00Z,29.7858,-84.8752,27.0,1111122 
NERRS,ioos:station:NOAA.NERRS:apaebwq:1,2017-09-02T02:45:00Z,29.7858,-84.8752,16.0,1111122 
NERRS,ioos:station:NOAA.NERRS:apaebwq:1,2017-09-02T03:45:00Z,29.7858,-84.8752,29.0,1111122 
NERRS,ioos:station:NOAA.NERRS:apaebwq:1,2017-09-02T04:45:00Z,29.7858,-84.8752,28.0,1111122 
NERRS,ioos:station:NOAA.NERRS:apaebwq:1,2017-09-02T05:45:00Z,29.7858,-84.8752,23.0,1111122 
NERRS,ioos:station:NOAA.NERRS:apaebwq:1,2017-09-02T06:45:00Z,29.7858,-84.8752,24.0,1111122 
NERRS,ioos:station:NOAA.NERRS:apaebwq:1,2017-09-02T07:45:00Z,29.7858,-84.8752,23.0,1111122 
NERRS,ioos:station:NOAA.NERRS:apaebwq:1,2017-09-02T08:45:00Z,29.7858,-84.8752,21.0,1111122 
NERRS,ioos:station:NOAA.NERRS:apaebwq:1,2017-09-02T09:45:00Z,29.7858,-84.8752,25.0,1111122 
NERRS,ioos:station:NOAA.NERRS:apaebwq:1,2017-09-02T10:45:00Z,29.7858,-84.8752,21.0,1111122 
NERRS,ioos:station:NOAA.NERRS:apaebwq:1,2017-09-02T11:45:00Z,29.7858,-84.8752,11.0,1111122 
NERRS,ioos:station:NOAA.NERRS:apaebwq:1,2017-09-02T12:45:00Z,29.7858,-84.8752,15.0,1111122 
NERRS,ioos:station:NOAA.NERRS:apaebwq:1,2017-09-02T13:45:00Z,29.7858,-84.8752,14.0,1111122 
NERRS,ioos:station:NOAA.NERRS:apaebwq:1,2017-09-02T14:45:00Z,29.7858,-84.8752,18.0,1111122 
NERRS,ioos:station:NOAA.NERRS:apaebwq:1,2017-09-02T15:45:00Z,29.7858,-84.8752,11.0,1111122 
NERRS,ioos:station:NOAA.NERRS:apaebwq:1,2017-09-02T16:45:00Z,29.7858,-84.8752,21.0,1111122 
NERRS,ioos:station:NOAA.NERRS:apaebwq:1,2017-09-02T17:45:00Z,29.7858,-84.8752,20.0,1111122 
NERRS,ioos:station:NOAA.NERRS:apaebwq:1,2017-09-02T18:45:00Z,29.7858,-84.8752,17.0,1111122 
NERRS,ioos:station:NOAA.NERRS:apaebwq:1,2017-09-02T19:45:00Z,29.7858,-84.8752,18.0,1111122 
NERRS,ioos:station:NOAA.NERRS:apaebwq:1,2017-09-02T20:45:00Z,29.7858,-84.8752,22.0,1111122 
NERRS,ioos:station:NOAA.NERRS:apaebwq:1,2017-09-02T21:45:00Z,29.7858,-84.8752,24.0,1111122 
NERRS,ioos:station:NOAA.NERRS:apaebwq:1,2017-09-02T22:45:00Z,29.7858,-84.8752,23.0,1111122 
NERRS,ioos:station:NOAA.NERRS:apaebwq:1,2017-09-02T23:45:00Z,29.7858,-84.8752,19.0,1111122 
NERRS,ioos:station:NOAA.NERRS:apaebwq:1,2017-09-03T00:45:00Z,29.7858,-84.8752,15.0,1111122 
NERRS,ioos:station:NOAA.NERRS:apaebwq:1,2017-09-03T01:45:00Z,29.7858,-84.8752,10.0,1111122 
NERRS,ioos:station:NOAA.NERRS:apaebwq:1,2017-09-03T02:45:00Z,29.7858,-84.8752,13.0,1111122 
NERRS,ioos:station:NOAA.NERRS:apaebwq:1,2017-09-03T03:45:00Z,29.7858,-84.8752,17.0,1111122 
NERRS,ioos:station:NOAA.NERRS:apaebwq:1,2017-09-03T04:45:00Z,29.7858,-84.8752,19.0,1111122 
NERRS,ioos:station:NOAA.NERRS:apaebwq:1,2017-09-03T05:45:00Z,29.7858,-84.8752,17.0,1111122 
NERRS,ioos:station:NOAA.NERRS:apaebwq:1,2017-09-03T06:45:00Z,29.7858,-84.8752,14.0,1111122 
NERRS,ioos:station:NOAA.NERRS:apaebwq:1,2017-09-03T07:45:00Z,29.7858,-84.8752,8.0,1111122 
NERRS,ioos:station:NOAA.NERRS:apaebwq:1,2017-09-03T08:45:00Z,29.7858,-84.8752,11.0,1111122 
NERRS,ioos:station:NOAA.NERRS:apaebwq:1,2017-09-03T09:45:00Z,29.7858,-84.8752,12.0,1111122 
NERRS,ioos:station:NOAA.NERRS:apaebwq:1,2017-09-03T10:45:00Z,29.7858,-84.8752,10.0,1111122 
NERRS,ioos:station:NOAA.NERRS:apaebwq:1,2017-09-03T11:45:00Z,29.7858,-84.8752,12.0,1111122 
NERRS,ioos:station:NOAA.NERRS:apaebwq:1,2017-09-03T12:45:00Z,29.7858,-84.8752,10.0,1111122 
NERRS,ioos:station:NOAA.NERRS:apaebwq:1,2017-09-03T13:45:00Z,29.7858,-84.8752,11.0,1111122 
NERRS,ioos:station:NOAA.NERRS:apaebwq:1,2017-09-03T14:45:00Z,29.7858,-84.8752,10.0,1111122 
NERRS,ioos:station:NOAA.NERRS:apaebwq:1,2017-09-03T15:45:00Z,29.7858,-84.8752,11.0,1111122 
NERRS,ioos:station:NOAA.NERRS:apaebwq:1,2017-09-03T16:45:00Z,29.7858,-84.8752,16.0,1111122 
NERRS,ioos:station:NOAA.NERRS:apaebwq:1,2017-09-03T17:45:00Z,29.7858,-84.8752,10.0,1111122 
NERRS,ioos:station:NOAA.NERRS:apaebwq:1,2017-09-03T18:45:00Z,29.7858,-84.8752,9.0,1111122 
NERRS,ioos:station:NOAA.NERRS:apaebwq:1,2017-09-03T19:45:00Z,29.7858,-84.8752,18.0,1111122 
NERRS,ioos:station:NOAA.NERRS:apaebwq:1,2017-09-03T20:45:00Z,29.7858,-84.8752,15.0,1111122 
NERRS,ioos:station:NOAA.NERRS:apaebwq:1,2017-09-03T21:45:00Z,29.7858,-84.8752,13.0,1111122 
NERRS,ioos:station:NOAA.NERRS:apaebwq:1,2017-09-03T22:45:00Z,29.7858,-84.8752,17.0,1111122 
NERRS,ioos:station:NOAA.NERRS:apaebwq:1,2017-09-03T23:45:00Z,29.7858,-84.8752,16.0,1111122 
NERRS,ioos:station:NOAA.NERRS:apaebwq:1,2017-09-04T00:45:00Z,29.7858,-84.8752,9.0,1111122 
NERRS,ioos:station:NOAA.NERRS:apaebwq:1,2017-09-04T01:45:00Z,29.7858,-84.8752,8.0,1111122 
NERRS,ioos:station:NOAA.NERRS:apaebwq:1,2017-09-04T02:45:00Z,29.7858,-84.8752,7.0,1111122 
NERRS,ioos:station:NOAA.NERRS:apaebwq:1,2017-09-04T03:45:00Z,29.7858,-84.8752,12.0,1111122 
NERRS,ioos:station:NOAA.NERRS:apaebwq:1,2017-09-04T04:45:00Z,29.7858,-84.8752,12.0,1111122 
NERRS,ioos:station:NOAA.NERRS:apaebwq:1,2017-09-04T05:45:00Z,29.7858,-84.8752,11.0,1111122 
NERRS,ioos:station:NOAA.NERRS:apaebwq:1,2017-09-04T06:45:00Z,29.7858,-84.8752,10.0,1111122 
NERRS,ioos:station:NOAA.NERRS:apaebwq:1,2017-09-04T07:45:00Z,29.7858,-84.8752,8.0,1111122 
NERRS,ioos:station:NOAA.NERRS:apaebwq:1,2017-09-04T08:45:00Z,29.7858,-84.8752,9.0,1111122 
NERRS,ioos:station:NOAA.NERRS:apaebwq:1,2017-09-04T09:45:00Z,29.7858,-84.8752,8.0,1111122 
NERRS,ioos:station:NOAA.NERRS:apaebwq:1,2017-09-04T10:45:00Z,29.7858,-84.8752,8.0,1111122 
NERRS,ioos:station:NOAA.NERRS:apaebwq:1,2017-09-04T11:45:00Z,29.7858,-84.8752,7.0,1111122 
NERRS,ioos:station:NOAA.NERRS:apaebwq:1,2017-09-04T12:45:00Z,29.7858,-84.8752,7.0,1111122 
NERRS,ioos:station:NOAA.NERRS:apaebwq:1,2017-09-04T13:45:00Z,29.7858,-84.8752,6.0,1111122 
NERRS,ioos:station:NOAA.NERRS:apaebwq:1,2017-09-04T14:45:00Z,29.7858,-84.8752,15.0,1111122 
NERRS,ioos:station:NOAA.NERRS:apaebwq:1,2017-09-04T15:45:00Z,29.7858,-84.8752,26.0,1111122 
NERRS,ioos:station:NOAA.NERRS:apaebwq:1,2017-09-04T16:45:00Z,29.7858,-84.8752,28.0,1111122 
NERRS,ioos:station:NOAA.NERRS:apaebwq:1,2017-09-04T17:45:00Z,29.7858,-84.8752,23.0,1111122 
NERRS,ioos:station:NOAA.NERRS:apaebwq:1,2017-09-04T18:45:00Z,29.7858,-84.8752,30.0,1111122 
NERRS,ioos:station:NOAA.NERRS:apaebwq:1,2017-09-04T19:45:00Z,29.7858,-84.8752,14.0,1111122 
NERRS,ioos:station:NOAA.NERRS:apaebwq:1,2017-09-04T20:45:00Z,29.7858,-84.8752,24.0,1111122 
NERRS,ioos:station:NOAA.NERRS:apaebwq:1,2017-09-04T21:45:00Z,29.7858,-84.8752,26.0,1111122 
NERRS,ioos:station:NOAA.NERRS:apaebwq:1,2017-09-04T23:45:00Z,29.7858,-84.8752,44.0,1111122 
NERRS,ioos:station:NOAA.NERRS:apaebwq:1,2017-09-05T00:45:00Z,29.7858,-84.8752,47.0,1111122 
NERRS,ioos:station:NOAA.NERRS:apaebwq:1,2017-09-05T01:45:00Z,29.7858,-84.8752,38.0,1111122 
NERRS,ioos:station:NOAA.NERRS:apaebwq:1,2017-09-05T02:45:00Z,29.7858,-84.8752,20.0,1111122 
NERRS,ioos:station:NOAA.NERRS:apaebwq:1,2017-09-05T03:45:00Z,29.7858,-84.8752,18.0,1111122 
NERRS,ioos:station:NOAA.NERRS:apaebwq:1,2017-09-05T04:45:00Z,29.7858,-84.8752,31.0,1111122 
NERRS,ioos:station:NOAA.NERRS:apaebwq:1,2017-09-05T05:45:00Z,29.7858,-84.8752,24.0,1111122 
NERRS,ioos:station:NOAA.NERRS:apaebwq:1,2017-09-05T06:45:00Z,29.7858,-84.8752,22.0,1111122 
NERRS,ioos:station:NOAA.NERRS:apaebwq:1,2017-09-05T07:45:00Z,29.7858,-84.8752,17.0,1111122 
NERRS,ioos:station:NOAA.NERRS:apaebwq:1,2017-09-05T08:45:00Z,29.7858,-84.8752,13.0,1111122 
NERRS,ioos:station:NOAA.NERRS:apaebwq:1,2017-09-05T09:45:00Z,29.7858,-84.8752,19.0,1111122 
NERRS,ioos:station:NOAA.NERRS:apaebwq:1,2017-09-05T10:45:00Z,29.7858,-84.8752,9.0,1111122 
NERRS,ioos:station:NOAA.NERRS:apaebwq:1,2017-09-05T11:45:00Z,29.7858,-84.8752,8.0,1111122 
NERRS,ioos:station:NOAA.NERRS:apaebwq:1,2017-09-05T12:45:00Z,29.7858,-84.8752,9.0,1111122 
NERRS,ioos:station:NOAA.NERRS:apaebwq:1,2017-09-05T13:45:00Z,29.7858,-84.8752,8.0,1111122 
NERRS,ioos:station:NOAA.NERRS:apaebwq:1,2017-09-05T15:45:00Z,29.7858,-84.8752,20.0,1111122 
NERRS,ioos:station:NOAA.NERRS:apaebwq:1,2017-09-05T16:45:00Z,29.7858,-84.8752,18.0,1111122 
NERRS,ioos:station:NOAA.NERRS:apaebwq:1,2017-09-05T17:45:00Z,29.7858,-84.8752,17.0,1111122 
NERRS,ioos:station:NOAA.NERRS:apaebwq:1,2017-09-05T18:45:00Z,29.7858,-84.8752,22.0,1111122 
NERRS,ioos:station:NOAA.NERRS:apaebwq:1,2017-09-05T19:45:00Z,29.7858,-84.8752,45.0,1111122 
NERRS,ioos:station:NOAA.NERRS:apaebwq:1,2017-09-05T20:45:00Z,29.7858,-84.8752,16.0,1111122 
NERRS,ioos:station:NOAA.NERRS:apaebwq:1,2017-09-05T21:45:00Z,29.7858,-84.8752,32.0,1111122 
NERRS,ioos:station:NOAA.NERRS:apaebwq:1,2017-09-05T22:45:00Z,29.7858,-84.8752,79.0,1111122 
NERRS,ioos:station:NOAA.NERRS:apaebwq:1,2017-09-05T23:45:00Z,29.7858,-84.8752,66.0,1111122 
NERRS,ioos:station:NOAA.NERRS:apaebwq:1,2017-09-06T00:45:00Z,29.7858,-84.8752,53.0,1111122 
NERRS,ioos:station:NOAA.NERRS:apaebwq:1,2017-09-15T14:45:00Z,29.7858,-84.8752,37.0,1111122 
NERRS,ioos:station:NOAA.NERRS:apaebwq:1,2017-09-15T15:45:00Z,29.7858,-84.8752,26.0,1111122 
NERRS,ioos:station:NOAA.NERRS:apaebwq:1,2017-09-15T16:45:00Z,29.7858,-84.8752,19.0,1111122 
NERRS,ioos:station:NOAA.NERRS:apaebwq:1,2017-09-15T17:45:00Z,29.7858,-84.8752,20.0,1111122 
NERRS,ioos:station:NOAA.NERRS:apaebwq:1,2017-09-15T18:45:00Z,29.7858,-84.8752,53.0,1111122 
NERRS,ioos:station:NOAA.NERRS:apaebwq:1,2017-09-15T19:45:00Z,29.7858,-84.8752,53.0,1111122 
NERRS,ioos:station:NOAA.NERRS:apaebwq:1,2017-09-15T20:45:00Z,29.7858,-84.8752,35.0,1111122 
NERRS,ioos:station:NOAA.NERRS:apaebwq:1,2017-09-15T21:45:00Z,29.7858,-84.8752,57.0,1111122 
NERRS,ioos:station:NOAA.NERRS:apaebwq:1,2017-09-15T22:45:00Z,29.7858,-84.8752,58.0,1111122 
NERRS,ioos:station:NOAA.NERRS:apaebwq:1,2017-09-15T23:45:00Z,29.7858,-84.8752,29.0,1111122 
NERRS,ioos:station:NOAA.NERRS:apaebwq:1,2017-09-16T00:45:00Z,29.7858,-84.8752,20.0,1111122 
NERRS,ioos:station:NOAA.NERRS:apaebwq:1,2017-09-16T01:45:00Z,29.7858,-84.8752,22.0,1111122 
NERRS,ioos:station:NOAA.NERRS:apaebwq:1,2017-09-16T02:45:00Z,29.7858,-84.8752,22.0,1111122 
NERRS,ioos:station:NOAA.NERRS:apaebwq:1,2017-09-16T03:45:00Z,29.7858,-84.8752,30.0,1111122 
NERRS,ioos:station:NOAA.NERRS:apaebwq:1,2017-09-16T04:45:00Z,29.7858,-84.8752,25.0,1111122 
NERRS,ioos:station:NOAA.NERRS:apaebwq:1,2017-09-16T05:45:00Z,29.7858,-84.8752,25.0,1111122 
NERRS,ioos:station:NOAA.NERRS:apaebwq:1,2017-09-16T06:45:00Z,29.7858,-84.8752,21.0,1111122 
NERRS,ioos:station:NOAA.NERRS:apaebwq:1,2017-09-16T07:45:00Z,29.7858,-84.8752,36.0,1111122 
NERRS,ioos:station:NOAA.NERRS:apaebwq:1,2017-09-16T08:45:00Z,29.7858,-84.8752,29.0,1111122 
NERRS,ioos:station:NOAA.NERRS:apaebwq:1,2017-09-16T09:45:00Z,29.7858,-84.8752,17.0,1111122 
NERRS,ioos:station:NOAA.NERRS:apaebwq:1,2017-09-16T10:45:00Z,29.7858,-84.8752,20.0,1111122 
NERRS,ioos:station:NOAA.NERRS:apaebwq:1,2017-09-16T11:45:00Z,29.7858,-84.8752,22.0,1111122 
NERRS,ioos:station:NOAA.NERRS:apaebwq:1,2017-09-16T12:45:00Z,29.7858,-84.8752,24.0,1111122 
NERRS,ioos:station:NOAA.NERRS:apaebwq:1,2017-09-16T13:45:00Z,29.7858,-84.8752,21.0,1111122 
NERRS,ioos:station:NOAA.NERRS:apaebwq:1,2017-09-16T14:45:00Z,29.7858,-84.8752,24.0,1111122 
NERRS,ioos:station:NOAA.NERRS:apaebwq:1,2017-09-16T15:45:00Z,29.7858,-84.8752,20.0,1111122 
NERRS,ioos:station:NOAA.NERRS:apaebwq:1,2017-09-16T16:45:00Z,29.7858,-84.8752,16.0,1111122 
NERRS,ioos:station:NOAA.NERRS:apaebwq:1,2017-09-16T17:45:00Z,29.7858,-84.8752,24.0,1111122 
NERRS,ioos:station:NOAA.NERRS:apaebwq:1,2017-09-16T18:45:00Z,29.7858,-84.8752,25.0,1111122 
NERRS,ioos:station:NOAA.NERRS:apaebwq:1,2017-09-16T19:45:00Z,29.7858,-84.8752,32.0,1111122 
NERRS,ioos:station:NOAA.NERRS:apaebwq:1,2017-09-16T20:45:00Z,29.7858,-84.8752,42.0,1111122 
NERRS,ioos:station:NOAA.NERRS:apaebwq:1,2017-09-16T21:45:00Z,29.7858,-84.8752,43.0,1111122 
NERRS,ioos:station:NOAA.NERRS:apaebwq:1,2017-09-16T22:45:00Z,29.7858,-84.8752,30.0,1111122 
NERRS,ioos:station:NOAA.NERRS:apaebwq:1,2017-09-16T23:45:00Z,29.7858,-84.8752,29.0,1111122 
NERRS,ioos:station:NOAA.NERRS:apaebwq:1,2017-09-17T00:45:00Z,29.7858,-84.8752,25.0,1111122 
NERRS,ioos:station:NOAA.NERRS:apaebwq:1,2017-09-17T01:45:00Z,29.7858,-84.8752,26.0,1111122 
NERRS,ioos:station:NOAA.NERRS:apaebwq:1,2017-09-17T02:45:00Z,29.7858,-84.8752,32.0,1111122 
NERRS,ioos:station:NOAA.NERRS:apaebwq:1,2017-09-17T03:45:00Z,29.7858,-84.8752,22.0,1111122 
NERRS,ioos:station:NOAA.NERRS:apaebwq:1,2017-09-17T04:45:00Z,29.7858,-84.8752,19.0,1111122 
NERRS,ioos:station:NOAA.NERRS:apaebwq:1,2017-09-17T05:45:00Z,29.7858,-84.8752,20.0,1111122 
NERRS,ioos:station:NOAA.NERRS:apaebwq:1,2017-09-17T06:45:00Z,29.7858,-84.8752,23.0,1111122 
NERRS,ioos:station:NOAA.NERRS:apaebwq:1,2017-09-17T07:45:00Z,29.7858,-84.8752,19.0,1111122 
NERRS,ioos:station:NOAA.NERRS:apaebwq:1,2017-09-17T08:45:00Z,29.7858,-84.8752,15.0,1111122 
NERRS,ioos:station:NOAA.NERRS:apaebwq:1,2017-09-17T09:45:00Z,29.7858,-84.8752,13.0,1111122 
NERRS,ioos:station:NOAA.NERRS:apaebwq:1,2017-09-17T10:45:00Z,29.7858,-84.8752,12.0,1111122 
NERRS,ioos:station:NOAA.NERRS:apaebwq:1,2017-09-17T11:45:00Z,29.7858,-84.8752,11.0,1111122 
NERRS,ioos:station:NOAA.NERRS:apaebwq:1,2017-09-17T12:45:00Z,29.7858,-84.8752,23.0,1111122 
NERRS,ioos:station:NOAA.NERRS:apaebwq:1,2017-09-17T13:45:00Z,29.7858,-84.8752,18.0,1111122 
NERRS,ioos:station:NOAA.NERRS:apaebwq:1,2017-09-17T14:45:00Z,29.7858,-84.8752,18.0,1111122 
NERRS,ioos:station:NOAA.NERRS:apaebwq:1,2017-09-17T15:45:00Z,29.7858,-84.8752,18.0,1111122 
NERRS,ioos:station:NOAA.NERRS:apaebwq:1,2017-09-17T16:45:00Z,29.7858,-84.8752,24.0,1111122 
NERRS,ioos:station:NOAA.NERRS:apaebwq:1,2017-09-17T17:45:00Z,29.7858,-84.8752,17.0,1111122 
NERRS,ioos:station:NOAA.NERRS:apaebwq:1,2017-09-17T18:45:00Z,29.7858,-84.8752,15.0,1111122 
NERRS,ioos:station:NOAA.NERRS:apaebwq:1,2017-09-17T19:45:00Z,29.7858,-84.8752,18.0,1111122 
NERRS,ioos:station:NOAA.NERRS:apaebwq:1,2017-09-17T20:45:00Z,29.7858,-84.8752,17.0,1111122 
NERRS,ioos:station:NOAA.NERRS:apaebwq:1,2017-09-17T21:45:00Z,29.7858,-84.8752,18.0,1111122 
NERRS,ioos:station:NOAA.NERRS:apaebwq:1,2017-09-17T22:45:00Z,29.7858,-84.8752,20.0,1111122 
NERRS,ioos:station:NOAA.NERRS:apaebwq:1,2017-09-17T23:45:00Z,29.7858,-84.8752,33.0,1111122 
NERRS,ioos:station:NOAA.NERRS:apaebwq:1,2017-09-18T00:45:00Z,29.7858,-84.8752,18.0,1111122 
NERRS,ioos:station:NOAA.NERRS:apaebwq:1,2017-09-18T01:45:00Z,29.7858,-84.8752,25.0,1111122 
NERRS,ioos:station:NOAA.NERRS:apaebwq:1,2017-09-18T02:45:00Z,29.7858,-84.8752,19.0,1111122 
NERRS,ioos:station:NOAA.NERRS:apaebwq:1,2017-09-18T03:45:00Z,29.7858,-84.8752,17.0,1111122 
NERRS,ioos:station:NOAA.NERRS:apaebwq:1,2017-09-18T04:45:00Z,29.7858,-84.8752,18.0,1111122 
NERRS,ioos:station:NOAA.NERRS:apaebwq:1,2017-09-18T05:45:00Z,29.7858,-84.8752,17.0,1111122 
NERRS,ioos:station:NOAA.NERRS:apaebwq:1,2017-09-18T06:45:00Z,29.7858,-84.8752,22.0,1111122 
NERRS,ioos:station:NOAA.NERRS:apaebwq:1,2017-09-18T07:45:00Z,29.7858,-84.8752,14.0,1111122 
NERRS,ioos:station:NOAA.NERRS:apaebwq:1,2017-09-18T08:45:00Z,29.7858,-84.8752,16.0,1111122 
NERRS,ioos:station:NOAA.NERRS:apaebwq:1,2017-09-18T09:45:00Z,29.7858,-84.8752,17.0,1111122 
NERRS,ioos:station:NOAA.NERRS:apaebwq:1,2017-09-18T10:45:00Z,29.7858,-84.8752,21.0,1111122 
NERRS,ioos:station:NOAA.NERRS:apaebwq:1,2017-09-18T11:45:00Z,29.7858,-84.8752,30.0,1111122 
NERRS,ioos:station:NOAA.NERRS:apaebwq:1,2017-09-18T12:45:00Z,29.7858,-84.8752,25.0,1111122 
NERRS,ioos:station:NOAA.NERRS:apaebwq:1,2017-09-18T13:45:00Z,29.7858,-84.8752,24.0,1111122 
NERRS,ioos:station:NOAA.NERRS:apaebwq:1,2017-09-18T14:45:00Z,29.7858,-84.8752,22.0,1111122 
NERRS,ioos:station:NOAA.NERRS:apaebwq:1,2017-09-18T15:45:00Z,29.7858,-84.8752,25.0,1111122 
NERRS,ioos:station:NOAA.NERRS:apaebwq:1,2017-09-18T16:45:00Z,29.7858,-84.8752,32.0,1111122 
NERRS,ioos:station:NOAA.NERRS:apaebwq:1,2017-09-19T07:45:00Z,29.7858,-84.8752,15.0,1111122 
NERRS,ioos:station:NOAA.NERRS:apaebwq:1,2017-09-19T08:45:00Z,29.7858,-84.8752,14.0,1111122 
NERRS,ioos:station:NOAA.NERRS:apaebwq:1,2017-09-19T09:45:00Z,29.7858,-84.8752,15.0,1111122 
NERRS,ioos:station:NOAA.NERRS:apaebwq:1,2017-09-19T10:45:00Z,29.7858,-84.8752,14.0,1111122 
NERRS,ioos:station:NOAA.NERRS:apaebwq:1,2017-09-19T11:45:00Z,29.7858,-84.8752,16.0,1111122 
NERRS,ioos:station:NOAA.NERRS:apaebwq:1,2017-09-19T12:45:00Z,29.7858,-84.8752,15.0,1111122 
NERRS,ioos:station:NOAA.NERRS:apaebwq:1,2017-09-19T13:45:00Z,29.7858,-84.8752,16.0,1111122 
NERRS,ioos:station:NOAA.NERRS:apaebwq:1,2017-09-19T14:45:00Z,29.7858,-84.8752,18.0,1111122 
NERRS,ioos:station:NOAA.NERRS:apaebwq:1,2017-09-19T15:45:00Z,29.7858,-84.8752,19.0,1111122 
NERRS,ioos:station:NOAA.NERRS:apaebwq:1,2017-09-19T16:45:00Z,29.7858,-84.8752,17.0,1111122 
NERRS,ioos:station:NOAA.NERRS:apaebwq:1,2017-09-19T17:45:00Z,29.7858,-84.8752,19.0,1111122 
NERRS,ioos:station:NOAA.NERRS:apaebwq:1,2017-09-19T18:45:00Z,29.7858,-84.8752,31.0,1111122 
NERRS,ioos:station:NOAA.NERRS:apaebwq:1,2017-09-19T19:45:00Z,29.7858,-84.8752,19.0,1111122 
NERRS,ioos:station:NOAA.NERRS:apaebwq:1,2017-09-19T20:45:00Z,29.7858,-84.8752,32.0,1111122 
NERRS,ioos:station:NOAA.NERRS:apaebwq:1,2017-09-19T21:45:00Z,29.7858,-84.8752,42.0,1111122 
NERRS,ioos:station:NOAA.NERRS:apaebwq:1,2017-09-19T22:45:00Z,29.7858,-84.8752,49.0,1111122 
NERRS,ioos:station:NOAA.NERRS:apaebwq:1,2017-09-19T23:45:00Z,29.7858,-84.8752,24.0,1111122 
NERRS,ioos:station:NOAA.NERRS:apaebwq:1,2017-09-20T00:45:00Z,29.7858,-84.8752,33.0,1111122 
NERRS,ioos:station:NOAA.NERRS:apaebwq:1,2017-09-20T01:45:00Z,29.7858,-84.8752,15.0,1111122 
NERRS,ioos:station:NOAA.NERRS:apaebwq:1,2017-09-20T02:45:00Z,29.7858,-84.8752,11.0,1111122 
NERRS,ioos:station:NOAA.NERRS:apaebwq:1,2017-09-20T03:45:00Z,29.7858,-84.8752,17.0,1111122 
NERRS,ioos:station:NOAA.NERRS:apaebwq:1,2017-09-20T04:45:00Z,29.7858,-84.8752,14.0,1111122 
NERRS,ioos:station:NOAA.NERRS:apaebwq:1,2017-09-20T05:45:00Z,29.7858,-84.8752,17.0,1111122 
NERRS,ioos:station:NOAA.NERRS:apaebwq:1,2017-09-20T06:45:00Z,29.7858,-84.8752,15.0,1111122 
NERRS,ioos:station:NOAA.NERRS:apaebwq:1,2017-09-20T07:45:00Z,29.7858,-84.8752,11.0,1111122 
NERRS,ioos:station:NOAA.NERRS:apaebwq:1,2017-09-20T08:45:00Z,29.7858,-84.8752,10.0,1111122 
NERRS,ioos:station:NOAA.NERRS:apaebwq:1,2017-09-20T12:45:00Z,29.7858,-84.8752,14.0,1111122 
NERRS,ioos:station:NOAA.NERRS:apaebwq:1,2017-09-20T13:45:00Z,29.7858,-84.8752,17.0,1111122 
NERRS,ioos:station:NOAA.NERRS:apaebwq:1,2017-09-20T14:45:00Z,29.7858,-84.8752,12.0,1111122 
NERRS,ioos:station:NOAA.NERRS:apaebwq:1,2017-09-20T15:45:00Z,29.7858,-84.8752,12.0,1111122 
NERRS,ioos:station:NOAA.NERRS:apaebwq:1,2017-09-20T16:45:00Z,29.7858,-84.8752,18.0,1111122 
NERRS,ioos:station:NOAA.NERRS:apaebwq:1,2017-09-20T17:45:00Z,29.7858,-84.8752,19.0,1111122 
NERRS,ioos:station:NOAA.NERRS:apaebwq:1,2017-09-20T18:45:00Z,29.7858,-84.8752,13.0,1111122 
NERRS,ioos:station:NOAA.NERRS:apaebwq:1,2017-09-20T19:45:00Z,29.7858,-84.8752,15.0,1111122 
NERRS,ioos:station:NOAA.NERRS:apaebwq:1,2017-09-20T20:45:00Z,29.7858,-84.8752,10.0,1111122 
NERRS,ioos:station:NOAA.NERRS:apaebwq:1,2017-09-20T21:45:00Z,29.7858,-84.8752,16.0,1111122 
NERRS,ioos:station:NOAA.NERRS:apaebwq:1,2017-09-20T22:45:00Z,29.7858,-84.8752,11.0,1111122 
NERRS,ioos:station:NOAA.NERRS:apaebwq:1,2017-09-20T23:45:00Z,29.7858,-84.8752,12.0,1111122 
NERRS,ioos:station:NOAA.NERRS:apaebwq:1,2017-09-21T00:45:00Z,29.7858,-84.8752,11.0,1111122 
NERRS,ioos:station:NOAA.NERRS:apaebwq:1,2017-09-21T01:45:00Z,29.7858,-84.8752,11.0,1111122 
NERRS,ioos:station:NOAA.NERRS:apaebwq:1,2017-09-21T02:45:00Z,29.7858,-84.8752,11.0,1111122 
NERRS,ioos:station:NOAA.NERRS:apaebwq:1,2017-09-21T03:45:00Z,29.7858,-84.8752,11.0,1111122 
NERRS,ioos:station:NOAA.NERRS:apaebwq:1,2017-09-21T04:45:00Z,29.7858,-84.8752,20.0,1111122 
NERRS,ioos:station:NOAA.NERRS:apaebwq:1,2017-09-21T05:45:00Z,29.7858,-84.8752,11.0,1111122 
NERRS,ioos:station:NOAA.NERRS:apaebwq:1,2017-09-21T06:45:00Z,29.7858,-84.8752,13.0,1111122 
NERRS,ioos:station:NOAA.NERRS:apaebwq:1,2017-09-21T07:45:00Z,29.7858,-84.8752,13.0,1111122 
NERRS,ioos:station:NOAA.NERRS:apaebwq:1,2017-09-21T08:45:00Z,29.7858,-84.8752,12.0,1111122 
NERRS,ioos:station:NOAA.NERRS:apaebwq:1,2017-09-21T09:45:00Z,29.7858,-84.8752,11.0,1111122 
NERRS,ioos:station:NOAA.NERRS:apaebwq:1,2017-09-21T10:45:00Z,29.7858,-84.8752,9.0,1111122 
NERRS,ioos:station:NOAA.NERRS:apaebwq:1,2017-09-21T11:45:00Z,29.7858,-84.8752,10.0,1111122 
NERRS,ioos:station:NOAA.NERRS:apaebwq:1,2017-09-21T12:45:00Z,29.7858,-84.8752,13.0,1111122 
NERRS,ioos:station:NOAA.NERRS:apaebwq:1,2017-09-21T13:45:00Z,29.7858,-84.8752,13.0,1111122 
NERRS,ioos:station:NOAA.NERRS:apaebwq:1,2017-09-21T14:45:00Z,29.7858,-84.8752,12.0,1111122 
NERRS,ioos:station:NOAA.NERRS:apaebwq:1,2017-09-21T15:45:00Z,29.7858,-84.8752,11.0,1111122 
NERRS,ioos:station:NOAA.NERRS:apaebwq:1,2017-09-21T16:45:00Z,29.7858,-84.8752,13.0,1111122 
NERRS,ioos:station:NOAA.NERRS:apaebwq:1,2017-09-21T17:45:00Z,29.7858,-84.8752,20.0,1111122 
NERRS,ioos:station:NOAA.NERRS:apaebwq:1,2017-09-21T18:45:00Z,29.7858,-84.8752,37.0,1111122 
NERRS,ioos:station:NOAA.NERRS:apaebwq:1,2017-09-21T19:45:00Z,29.7858,-84.8752,20.0,1111122 
NERRS,ioos:station:NOAA.NERRS:apaebwq:1,2017-09-21T20:45:00Z,29.7858,-84.8752,15.0,1111122 
NERRS,ioos:station:NOAA.NERRS:apaebwq:1,2017-09-21T21:45:00Z,29.7858,-84.8752,15.0,1111122 
NERRS,ioos:station:NOAA.NERRS:apaebwq:1,2017-09-21T22:45:00Z,29.7858,-84.8752,15.0,1111122 
NERRS,ioos:station:NOAA.NERRS:apaebwq:1,2017-09-21T23:45:00Z,29.7858,-84.8752,16.0,1111122 
NERRS,ioos:station:NOAA.NERRS:apaebwq:1,2017-09-22T00:45:00Z,29.7858,-84.8752,15.0,1111122 
NERRS,ioos:station:NOAA.NERRS:apaebwq:1,2017-09-22T01:45:00Z,29.7858,-84.8752,12.0,1111122 
NERRS,ioos:station:NOAA.NERRS:apaebwq:1,2017-09-22T02:45:00Z,29.7858,-84.8752,11.0,1111122 
NERRS,ioos:station:NOAA.NERRS:apaebwq:1,2017-09-22T03:45:00Z,29.7858,-84.8752,12.0,1111122 
NERRS,ioos:station:NOAA.NERRS:apaebwq:1,2017-09-22T04:45:00Z,29.7858,-84.8752,12.0,1111122 